[[{"header":{"parameterUnit":"m.s-1","parameterCategory":1,"la1":30.2991,"la2":30.254,"lo1":-89.0895,"lo2":-89.0444,"dy":0.0017,"dx":0.0017,"nx":28,"ny":28,"refTime":"2024-10-11T03:00:00:Z","depth":0,"parameterNumber":2,"parameterNumberName":"U-component_of_WINDS"},"data":[0,0,0,0,0,0,0,0,0,0,0,0,0,0,0,0,0,0,0,0,0,0,0,0,0,0,0,0,0,0,0,0,0,0,0,0,0,0,0,0,0,0,0,0,0,0,0,0,0,0,0,0,0,0,0,0,0,0,0.2398,0.2398,0,0.2383,0.2383,0.2383,0.238,0.238,0.2381,0.2381,0.2364,0.2364,0.2363,0,0,0,0,0,0,0,0,0,0,0,0,0,0.2423,0.2423,0.2398,0.2398,0.2398,0.2383,0.2383,0.2382,0.238,0.238,0.2381,0.2381,0.2364,0.2364,0.2363,0,0,0,0,0,0,0,0,0,0,0,0,0,0.2411,0.2423,0.2398,0.2395,0.2394,0.2383,0.2383,0.2382,0.238,0.238,0.2381,0.2381,0.2365,0.2364,0.2363,0.2353,0,0,0.236,0.236,0,0,0,0,0,0,0,0,0.2411,0.241,0.2396,0.2395,0.2395,0.2384,0.2385,0.2373,0.238,0.2386,0.2381,0.2381,0.237,0.2369,0.2366,0.2353,0.2352,0.236,0.236,0.2359,0.2359,0,0,0,0,0,0,0,0.2412,0.241,0.2392,0.2395,0.2395,0.2393,0.2392,0.2383,0.2377,0.2385,0.2385,0.2383,0.237,0.2367,0.2365,0.2352,0.236,0.2359,0.2359,0.2359,0.2328,0.2327,0,0,0,0,0,0,0.2414,0.2411,0.2393,0.2392,0.2404,0.2393,0.2391,0.2387,0.2377,0.2376,0.2383,0.2383,0.2368,0.2366,0.2365,0.2352,0.2359,0.2359,0.2358,0.2328,0.2328,0.2327,0,0,0,0,0,0,0.2414,0.2412,0.2393,0.2401,0.2399,0.2392,0.2388,0.2387,0.2383,0.2376,0.2374,0.2381,0.2368,0.2366,0.2356,0.2351,0.2358,0.2357,0.2328,0.2328,0.2327,0.2326,0,0,0,0,0,0,0.2415,0.2412,0.2409,0.2401,0.2398,0.2385,0.2387,0.2386,0.2382,0.2382,0.2373,0.2372,0.2368,0.2357,0.2355,0.235,0.2357,0.2329,0.2328,0.2328,0.2327,0.2326,0.2325,0,0,0,0,0,0.2416,0.241,0.2409,0.2407,0.2394,0.2385,0.2383,0.2379,0.2381,0.2378,0.2372,0.2372,0.2352,0.2356,0.2354,0.2348,0.2329,0.2328,0.2328,0.2327,0.2326,0.2325,0,0,0,0,0,0,0.2418,0.2409,0.2408,0.2399,0.2393,0.2385,0.238,0.2379,0.2372,0.2372,0.2367,0.2365,0.2355,0.2351,0.2355,0.2338,0.2341,0.2339,0.2341,0.234,0.2339,0.234,0.2356,0,0,0,0,0,0.2417,0.2411,0.2403,0.2396,0.2392,0.2387,0.2382,0.238,0.2373,0.237,0.2365,0.2358,0.235,0.2344,0.2337,0.2326,0.2323,0.2321,0.232,0.2319,0.2318,0.231,0.2309,0.2325,0.2325,0.2325,0,0,0.2415,0.241,0.2406,0.2396,0.2391,0.2383,0.2385,0.2377,0.2371,0.2369,0.2359,0.2354,0.2346,0.2335,0.233,0.2331,0.2313,0.2319,0.2318,0.2317,0.231,0.2308,0.2307,0.2325,0.2325,0.2325,0,0,0.2409,0.2404,0.2397,0.2392,0.2384,0.238,0.2378,0.237,0.2366,0.2356,0.2354,0.2346,0.2333,0.2327,0.2322,0.2311,0.231,0.2309,0.2304,0.2297,0.2295,0.2294,0.2289,0.2288,0.2308,0.2308,0.2308,0,0.2408,0.2397,0.2394,0.2386,0.2381,0.2378,0.237,0.2365,0.2355,0.2351,0.2353,0.2335,0.2329,0.2316,0.2313,0.2309,0.2306,0.231,0.2296,0.2295,0.2294,0.2289,0.2287,0.2308,0.2308,0.2308,0.2308,0,0.2396,0.2388,0.2383,0.2373,0.2368,0.236,0.2354,0.2349,0.2346,0.2342,0.233,0.2323,0.2313,0.231,0.2308,0.2296,0.2296,0.2297,0.23,0.2292,0.2287,0.2285,0.2307,0.2307,0.2307,0.2307,0,0,0.2391,0.2378,0.2376,0.2371,0.2361,0.2355,0.2346,0.2336,0.2331,0.2324,0.2316,0.2304,0.2303,0.2298,0.2295,0.2288,0.2278,0.2289,0.2289,0.2287,0.2263,0.2262,0.226,0.2277,0.2277,0.2277,0.2263,0,0.2382,0.2368,0.2363,0.235,0.2342,0.2339,0.2331,0.2324,0.2319,0.2311,0.2305,0.2296,0.2298,0.2294,0.2287,0.2281,0.2273,0.2282,0.2268,0.2268,0.227,0.2257,0.2257,0.2244,0.2261,0.2261,0.2261,0,0.2371,0.2363,0.2349,0.2339,0.2336,0.2329,0.2319,0.2311,0.2302,0.2299,0.2292,0.2289,0.2278,0.2282,0.2266,0.2272,0.2266,0.2262,0.2261,0.226,0.2264,0.2254,0.224,0.2238,0.2258,0.2258,0.2258,0,0.2368,0.2353,0.2343,0.2339,0.2327,0.2322,0.2316,0.2307,0.2301,0.2292,0.2288,0.2278,0.2272,0.2263,0.2257,0.226,0.2241,0.2245,0.2237,0.2238,0.2234,0.2234,0.2218,0.2231,0.2231,0.2231,0.2231,0,0.2359,0.235,0.2341,0.2335,0.2324,0.2319,0.2308,0.2303,0.2294,0.2286,0.2282,0.2274,0.2267,0.2257,0.2252,0.2239,0.2237,0.2233,0.2232,0.2233,0.2233,0.2229,0.2229,0.2231,0.2231,0.2231,0.2231,0,0.2353,0.2347,0.2335,0.2324,0.2321,0.2314,0.2304,0.2297,0.2292,0.2281,0.2278,0.2269,0.2257,0.225,0.2235,0.2232,0.2217,0.2217,0.222,0.222,0.2212,0.2213,0.2192,0.2189,0.2205,0.2205,0.2205,0,0.2348,0.2341,0.2329,0.2323,0.2318,0.2309,0.2302,0.2295,0.2289,0.2277,0.227,0.2259,0.2249,0.223,0.2222,0.221,0.2208,0.2202,0.2207,0.2208,0.2207,0.2207,0.2206,0.2201,0.2201,0.2201,0.2201,0,0.2338,0.2335,0.2326,0.2316,0.2308,0.2299,0.229,0.2285,0.2277,0.2269,0.2257,0.225,0.2234,0.2222,0.2209,0.2202,0.22,0.2199,0.2197,0.2198,0.22,0.2197,0.2217,0.22,0.22,0.22,0.22,0.22,0.2332,0.2325,0.2316,0.2305,0.2298,0.2289,0.2281,0.2274,0.2264,0.2251,0.2248,0.2235,0.2224,0.2206,0.2199,0.2188,0.2189,0.2186,0.2185,0.2184,0.2183,0.2202,0.2186,0.2186,0.2186,0.2186,0.2186,0,0.2322,0.2315,0.2305,0.2293,0.2284,0.2282,0.2272,0.2265,0.2253,0.2244,0.2234,0.2219,0.2206,0.2196,0.2183,0.2176,0.2174,0.2173,0.2173,0.2171,0.2184,0.2187,0.2174,0.2174,0.2174,0.2174,0.2174,0.2174,0.2316,0.2303,0.2299,0.2282,0.2275,0.2263,0.2257,0.2248,0.224,0.2224,0.2213,0.2207,0.2196,0.2182,0.217,0.2167,0.2162,0.216,0.2157,0.2169,0.217,0.2172,0.2174,0.2159,0.2159,0.2145,0.2145,0.2145]},{"header":{"parameterUnit":"m.s-1","parameterCategory":1,"la1":30.2991,"la2":30.254,"lo1":-89.0895,"lo2":-89.0444,"dy":0.0017,"dx":0.0017,"nx":28,"ny":28,"refTime":"2024-10-11T03:00:00:Z","depth":0,"parameterNumber":3,"parameterNumberName":"V-component_of_WINDS"},"data":[0,0,0,0,0,0,0,0,0,0,0,0,0,0,0,0,0,0,0,0,0,0,0,0,0,0,0,0,0,0,0,0,0,0,0,0,0,0,0,0,0,0,0,0,0,0,0,0,0,0,0,0,0,0,0,0,0,0,2.1444,2.1444,0,2.1417,2.1417,2.1417,2.138,2.138,2.1379,2.1379,2.1351,2.1351,2.135,0,0,0,0,0,0,0,0,0,0,0,0,0,2.1462,2.1462,2.1444,2.1444,2.1443,2.1417,2.1417,2.1417,2.138,2.138,2.1379,2.1378,2.1351,2.1351,2.135,0,0,0,0,0,0,0,0,0,0,0,0,0,2.1447,2.1462,2.1444,2.1422,2.142,2.1417,2.1417,2.1416,2.1381,2.138,2.1379,2.1378,2.1351,2.1351,2.135,2.1367,0,0,2.135,2.1349,0,0,0,0,0,0,0,0,2.1448,2.1446,2.1426,2.1424,2.1421,2.1401,2.1413,2.14,2.1381,2.1396,2.1378,2.1377,2.1368,2.1366,2.1363,2.1366,2.1364,2.135,2.1349,2.1349,2.1349,0,0,0,0,0,0,0,2.1449,2.1447,2.1433,2.1425,2.1423,2.1413,2.141,2.141,2.1387,2.1394,2.1391,2.1389,2.1367,2.1364,2.1363,2.1364,2.135,2.1349,2.1349,2.1349,2.1376,2.1377,0,0,0,0,0,0,2.1454,2.1448,2.1434,2.1433,2.1433,2.1414,2.141,2.1409,2.1387,2.1383,2.139,2.1387,2.1365,2.1363,2.1361,2.1378,2.1349,2.1349,2.1349,2.1375,2.1376,2.1377,0,0,0,0,0,0,2.1454,2.1453,2.1435,2.144,2.1437,2.1414,2.1413,2.1408,2.1405,2.1384,2.1379,2.1391,2.1364,2.1362,2.1365,2.1376,2.1349,2.1349,2.1374,2.1376,2.1377,2.1412,0,0,0,0,0,0,2.1455,2.1453,2.146,2.144,2.1437,2.144,2.1414,2.1409,2.1405,2.1402,2.1384,2.138,2.1363,2.1366,2.1365,2.1375,2.1348,2.1373,2.1375,2.1376,2.1409,2.1414,2.1418,0,0,0,0,0,2.1456,2.1471,2.146,2.1459,2.1444,2.1441,2.1439,2.1419,2.1406,2.1412,2.1398,2.138,2.1376,2.1367,2.1365,2.1376,2.1372,2.1374,2.1376,2.1407,2.1413,2.1418,0,0,0,0,0,0,2.1492,2.1468,2.1456,2.1465,2.1455,2.1435,2.1442,2.1426,2.142,2.1417,2.1393,2.1389,2.1395,2.1386,2.1377,2.139,2.1371,2.1373,2.1395,2.14,2.1405,2.1406,2.1348,0,0,0,0,0,2.1501,2.1501,2.148,2.149,2.1486,2.1465,2.1463,2.1448,2.1437,2.1433,2.1419,2.1408,2.1404,2.1402,2.1397,2.1408,2.1403,2.1414,2.1419,2.1422,2.1424,2.1427,2.1431,2.1384,2.1384,2.1384,0,0,2.152,2.1507,2.1508,2.1497,2.1488,2.1487,2.1462,2.1462,2.1461,2.1433,2.1435,2.1424,2.1411,2.1418,2.142,2.141,2.1436,2.1425,2.1428,2.1427,2.1429,2.1434,2.1438,2.1385,2.1385,2.1385,0,0,2.1554,2.1545,2.1551,2.1542,2.1529,2.1514,2.1516,2.1497,2.1489,2.1491,2.1469,2.1467,2.1461,2.1452,2.1446,2.1475,2.1458,2.1474,2.1496,2.15,2.1503,2.1506,2.1515,2.1519,2.1476,2.1476,2.1476,0,2.1579,2.1578,2.1557,2.1559,2.1554,2.1528,2.1533,2.1526,2.1511,2.1508,2.1497,2.1488,2.1477,2.148,2.1487,2.1484,2.1484,2.1476,2.1505,2.1507,2.151,2.1518,2.1521,2.1478,2.1478,2.1478,2.1478,0,2.1609,2.1608,2.1615,2.1601,2.1597,2.1601,2.1579,2.1578,2.1564,2.155,2.1551,2.1537,2.1528,2.1528,2.1515,2.1529,2.1523,2.1509,2.149,2.1517,2.1524,2.1527,2.1481,2.148,2.148,2.1479,0,0,2.1665,2.1638,2.1641,2.1634,2.1616,2.1614,2.1617,2.1608,2.1606,2.1597,2.1597,2.1591,2.1577,2.1571,2.1556,2.156,2.1581,2.1544,2.1544,2.155,2.1594,2.1604,2.1608,2.157,2.1571,2.1571,2.1594,0,2.1694,2.1696,2.1677,2.1684,2.1682,2.1657,2.1658,2.1647,2.1635,2.1631,2.1616,2.1612,2.1595,2.1591,2.1593,2.1578,2.1589,2.1576,2.1569,2.1569,2.1571,2.1611,2.1622,2.1645,2.1597,2.1597,2.1598,0,2.1729,2.172,2.1727,2.1708,2.1706,2.1708,2.1697,2.1694,2.168,2.1671,2.1663,2.1646,2.1645,2.1628,2.1626,2.1618,2.1613,2.1605,2.1606,2.1603,2.1584,2.1609,2.1652,2.1655,2.1602,2.1602,2.1602,0,2.1767,2.1758,2.176,2.1755,2.1732,2.1734,2.1724,2.171,2.1705,2.1696,2.1692,2.1683,2.1678,2.167,2.1651,2.164,2.165,2.1632,2.1641,2.1642,2.1644,2.1644,2.1686,2.1644,2.1644,2.1643,2.1643,0,2.1801,2.1806,2.1777,2.1778,2.1782,2.1759,2.1764,2.1752,2.1739,2.1737,2.1715,2.1713,2.1688,2.1683,2.1667,2.1667,2.1665,2.1657,2.1652,2.1658,2.1659,2.1654,2.1651,2.1644,2.1644,2.1644,2.1644,0,2.1844,2.1825,2.1825,2.1804,2.1799,2.1802,2.1783,2.1783,2.1769,2.1766,2.1765,2.1742,2.1735,2.1715,2.1703,2.1692,2.1696,2.1688,2.17,2.1697,2.1707,2.1706,2.1746,2.175,2.1707,2.1708,2.1708,0,2.1866,2.1869,2.1847,2.1844,2.1836,2.1832,2.1826,2.1804,2.1799,2.1783,2.1784,2.1776,2.1767,2.1757,2.1739,2.1729,2.1721,2.1735,2.1719,2.1724,2.1719,2.1718,2.1718,2.1739,2.1739,2.174,2.174,0,2.1907,2.1897,2.1891,2.188,2.1875,2.1866,2.1855,2.1854,2.1829,2.1825,2.1817,2.1811,2.1798,2.1789,2.1776,2.1765,2.1748,2.1746,2.1747,2.1752,2.1758,2.1753,2.1708,2.1745,2.1744,2.1744,2.1744,2.1743,2.1939,2.194,2.1924,2.1917,2.1907,2.1898,2.1896,2.1881,2.1874,2.1862,2.1849,2.1843,2.1827,2.1808,2.1799,2.1793,2.1784,2.1786,2.1787,2.1787,2.1789,2.176,2.179,2.179,2.179,2.179,2.179,0,2.1977,2.1966,2.196,2.1946,2.194,2.1925,2.1912,2.1908,2.1902,2.189,2.1882,2.1872,2.1863,2.1844,2.1833,2.1831,2.1823,2.1829,2.1828,2.1825,2.1799,2.1798,2.1836,2.1836,2.1836,2.1836,2.1836,2.1835,2.1996,2.1996,2.1984,2.1978,2.1967,2.196,2.1954,2.1945,2.1934,2.1925,2.1917,2.1904,2.1889,2.1876,2.1866,2.1861,2.1857,2.1865,2.1857,2.1832,2.1828,2.1823,2.1822,2.1865,2.1865,2.1884,2.1884,2.1884]}]]